Regional Weather Roundup
Issued by NWS

Home | Current Version | Previous Version | Graphics & Text | Print | Product List | Glossary On
Versions: 1 2 3 4 5 6 7 8 9 10 11 12 13 14 15 16 17 18 19 20 21 22 23 24 25 26 27 28 29 30 31 32 33 34 35 36 37 38 39 40 41 42 43 44 45 46 47 48 49 50
979
ASUS43 KMPX 160610
RWRMN
WEATHER ROUNDUP FOR MINNESOTA
NATIONAL WEATHER SERVICE TWIN CITIES/CHANHASSEN MN
1200 AM CST TUE JAN 16 2018


NOTE: "FAIR" INDICATES FEW OR NO CLOUDS BELOW 12,000 FEET WITH NO
SIGNIFICANT WEATHER AND/OR OBSTRUCTIONS TO VISIBILITY. N/A MEANS
CURRENT SKY AND/OR WEATHER CONDITIONS ARE NOT AVAILABLE.

MNZ060>063-068>070-160700-
   Twin Cities Metro

CITY           SKY/WX    TMP DP  RH WIND       PRES   REMARKS
TWIN CITIES    FAIR       2  -3  80 NW9       30.58R WCI -13
6HR MIN TEMP:   1; 6HR MAX TEMP:   3; 6HR PCP: TRACE;

ST PAUL        MOCLDY     2  -4  76 NW12      30.59S WCI -15
CRYSTAL        FAIR       0  -8  69 NW10      30.58R WCI -16
BLAINE         FAIR       3  -2  78 NW9       30.56S WCI -11
LAKEVILLE      MOCLDY     0  -4  85 NW10      30.56S WCI -17
EDEN PRAIRIE   MOCLDY     1  -6  72 NW10      30.58R WCI -15
6HR MIN TEMP:   1; 6HR MAX TEMP:   4; 6HR PCP: TRACE;

SOUTH ST PAUL  FLURRIES   4  -3  73 NW9       30.57S WCI -10
LAKE ELMO      FAIR       5   0  78 NW7       30.56R WCI  -7
$$
MNZ001>005-007-008-013>017-022>024-027-028-160700-
   Northwest Minnesota

CITY           SKY/WX    TMP DP  RH WIND       PRES   REMARKS
BEMIDJI        CLOUDY    -5  -9  82 NW8       30.67S WCI -21
HALLOCK        FAIR     -15 -20  76 N7        30.83S WCI -31
ROSEAU         FAIR     -17 -20  83 W3        30.77S
WARROAD        FAIR     -15 -20  76 NW7       30.76R WCI -31
THIEF RVR FALL FAIR     -17 -22  78 NW8       30.78R WCI -35
CROOKSTON      FAIR     -15 -18  84 N13       30.83S WCI -37
FOSSTON        CLOUDY   -15 -18  84 N5        30.73S WCI -27
DETROIT LAKES  CLOUDY    -9 -15  77 NW14      30.69F HAZE    WCI -31
MOORHEAD       CLOUDY   -11 -17  77 N17       30.80S WCI -35
PARK RAPIDS    CLOUDY    -3  -8  79 N8        30.64S WCI -18
MAHNOMEN       CLOUDY   -12 -17  77 N10       30.72F WCI -31
$$
MNZ006-009>011-018-025>026-160700-
   North Central Minnesota

CITY           SKY/WX    TMP DP  RH WIND       PRES   REMARKS
BAUDETTE       CLOUDY   -10 -15  78 NW9       30.70S WCI -27
FLAG ISLAND    FAIR     -15 -18  84 NW9       30.74S WCI -33
INTL FALLS     CLOUDY    -1  -6  79 NW7       30.67S WCI -14
6HR MIN TEMP:  -1; 6HR MAX TEMP:   1;

WASKISH        CLOUDY    -4  -8  84 N5        30.69F WCI -15
BIG FORK       CLOUDY     0  -6  78 N5        30.64S WCI -10
LONGVILLE      CLOUDY    -2  -8  78 N7        30.64F WCI -16
GRAND RAPIDS   FLURRIES   0  -3  87 N10       30.63S WCI -16
CRANE LAKE     CLOUDY     0  -2  92 N3        30.67S
ORR            CLOUDY     0  -6  78 NW5       30.60S WCI -10
COOK           CLOUDY     0  -2  92 N5        30.62S WCI -10
WALKER         LGT SNOW  -3  -7  85 N9        30.66S WCI -19
$$
MNZ012-019>021-037-160700-
   Northeast Minnesota

CITY           SKY/WX    TMP DP  RH WIND       PRES   REMARKS
DULUTH         FLURRIES   4   1  88 N13       30.53R WCI -13
6HR MIN TEMP:   2; 6HR MAX TEMP:   6; 6HR PCP: TRACE;

ELY            CLOUDY     1   0  92 N3        30.57F
HIBBING        CLOUDY     1  -3  83 N9        30.59S WCI -14
EVELETH        FLURRIES   2  -3  77 N8        30.59S WCI -12
DULUTH HARBOR  FLURRIES  12   7  79 NW12G17   30.60S WCI  -2
TWO HARBORS    FAIR       9   3  78 N8        30.52R WCI  -4
SILVER BAY     FAIR       9   3  78 N8        30.52S WCI  -4
GRAND MARAIS     N/A     14   6  70 N18G32    30.54F WCI  -3
G MARAIS ARPRT FLURRIES   7   1  78 N16       30.46F WCI -11
$$
MNZ029>031-032-039>041-046>048-054>057-064-160700-
   West Central Minnesota

CITY           SKY/WX    TMP DP  RH WIND       PRES   REMARKS
FERGUS FALLS   FAIR     -13 -18  77 NW8       30.78F WCI -30
WHEATON        CLOUDY    -9 -17  70 NW14G21   30.79F WCI -31
MORRIS         CLOUDY   -11 -17  77 NW17      30.71R HAZE    WCI -35
ALEXANDRIA     CLOUDY   -10 -14  82 NW8       30.64S WCI -26
ELBOW LAKE     CLOUDY   -12 -17  79 W13       30.72S WCI -34
WADENA         CLOUDY    -6  -9  84 N8        30.65S WCI -21
GLENWOOD       FAIR      -9 -15  77 NW10      30.65R WCI -28
APPLETON       CLOUDY    -9 -17  70 NW14G23   30.75R WCI -31
BENSON         CLOUDY   -11 -17  77 N16       30.71R WCI -34
ORTONVILLE     CLOUDY    -9 -17  70 NW17      30.74R WCI -33
MADISON        CLOUDY    -6 -13  71 NW15      30.75S WCI -27
WILLMAR        CLOUDY   -11 -17  77 NW13      30.68R WCI -32
$$
MNZ033>034-036-042>043-049>051-058-059-160700-
   Central Minnesota

CITY           SKY/WX    TMP DP  RH WIND       PRES   REMARKS
ST CLOUD       FAIR      -1  -5  82 N12       30.61R WCI -18
6HR MIN TEMP:  -3; 6HR MAX TEMP:   0; 6HR PCP: TRACE;

SAUK CENTRE      N/A     -4  -8  82 N9        30.63S WCI -21
PAYNESVILLE    CLOUDY    -6 -10  82 NW6       30.64R WCI -19
AITKIN         CLOUDY     0  -6  78 NW6       30.61S WCI -12
PINE RIVER     CLOUDY    -4  -9  77 N7        30.66S WCI -18
BRAINERD       CLOUDY    -1  -6  79 N10       30.64S WCI -17
STAPLES        CLOUDY    -6  -9  84 N10       30.64F WCI -23
LONG PRAIRIE   FAIR      -4  -8  84 NW13G18   30.63S WCI -23
LITTLE FALLS   CLOUDY     0  -9  65 N6        30.64R WCI -12
LITCHFIELD     FAIR      -6  -9  84 NW9       30.62S WCI -22
BUFFALO        FAIR      -1  -7  78 NW8       30.62R WCI -16
MAPLE LAKE     MOCLDY     0  -4  82 MISG      30.61S
HUTCHINSON     FAIR      -5 -10  77 W9        30.63R WCI -21
$$
MNZ037-044-045-052-053-160700-
   East Central Minnesota

CITY           SKY/WX    TMP DP  RH WIND       PRES   REMARKS
PRINCETON      CLOUDY     1  -4  78 NW9       30.59R WCI -14
MORA           FAIR       3   0  85 N8        30.59S WCI -10
CAMBRIDGE      FAIR       3  -4  72 NW7       30.59R WCI  -9
RUSH CITY      MOCLDY     2  -2  81 NW7       30.57S WCI -10
MOOSE LAKE     CLOUDY     5   0  78 N6        30.58R WCI  -6
HINCKLEY       FAIR       5   1  85 N13       30.56S WCI -12
CLOQUET        LGT SNOW   3   0  85 N16G23    30.56R WCI -16
MCGREGOR       CLOUDY     3   0  85 N10       30.61S WCI -12
$$
MNZ071>073-080-081-089-090-097-098-160700-
   Southwest Minnesota

CITY           SKY/WX    TMP DP  RH WIND       PRES   REMARKS
MONTEVIDEO     PTCLDY   -11 -17  77 N13       30.73R WCI -32
GRANITE FALLS  CLOUDY    -8 -14  75 NW16G23   30.73S WCI -31
CANBY          CLOUDY    -7 -12  76 NW13      30.74S WCI -26
MARSHALL       CLOUDY   -10 -15  78 NW18      30.71R WCI -34
REDWOOD FALLS  CLOUDY    -9 -14  78 NW13      30.68S WCI -29
OLIVIA         PTCLDY    -8 -15  71 NW17      30.66S WCI -31
PIPESTONE      CLEAR     -8 -15  71 N10       30.61S WCI -26
WINDOM         CLOUDY    -9 -24  49 NW20      30.61S HAZE    WCI -34
WORTHINGTON    CLOUDY    -9 -15  77 N21       30.61S WCI -35
JACKSON        CLOUDY    -9 -17  70 NW20      30.59S WCI -34
SLAYTON        CLOUDY   -10 -15  77 NW17G23   30.63S WCI -33
$$
MNZ065>067-074>077-082>085-091>093-160700-
   South Central Minnesota

CITY           SKY/WX    TMP DP  RH WIND       PRES   REMARKS
MANKATO        FLURRIES  -6 -12  75 NW16      30.60F WCI -28
NEW ULM        FLURRIES  -9 -17  70 NW14      30.64S WCI -31
ST JAMES       FLURRIES  -9 -15  77 NW20      30.64S WCI -34
FAIRMONT       FLURRIES  -9 -14  78 NW20      30.61  WCI -34
FARIBAULT      FLURRIES   0  -6  78 W8        30.56S WCI -15
OWATONNA       FLURRIES   0  -6  78 NW13      30.54S WCI -18
WASECA         LGT SNOW  -2  -8  78 W10       30.58S WCI -19
ALBERT LEA     LGT SNOW  -8 -13  77 NW9G20    30.53S WCI -25
$$
MNZ078>079-086>088-094>096-160700-
   Southeast Minnesota

CITY           SKY/WX    TMP DP  RH WIND       PRES   REMARKS
ROCHESTER      LGT SNOW   1  -2  87 NW18      30.46S FOG     WCI -20
6HR MIN TEMP:  -1; 6HR MAX TEMP:   2; 6HR PCP: TRACE;

RED WING       CLOUDY     5  -4  66 NW8       30.54S WCI  -8
STANTON        CLOUDY     4  -3  74 NW7       30.55S WCI  -9
DODGE CENTER   LGT SNOW   1  -2  85 NW17      30.48S WCI -19
WINONA         CLOUDY    10   5  79 NW14        N/A  WCI  -5
AUSTIN         LGT SNOW  -6  -9  84 NW16      30.50R WCI -28
PRESTON        CLOUDY     2  -3  81 NW15G21   30.45S WCI -17
$$
ABBREVIATIONS USED IN REMARKS
   TC - TEMPERATURES IN CELSIUS
  WCI - WIND CHILL INDEX
   HX - HEAT INDEX
  VSB - VISIBILITY
$$




USA.gov is the U.S. government's official web portal to all federal, state and local government web resources and services.